Weather in Zunkar

Russia / Stavropol Krai     44°18′19″N   44°53′29″E
temp.,
°C
wind,
m/s
gust,
m/s
humid.,
%
clouds,
%
prec.,
mm/h
press.,
hPa
HPBL,
m
4 december, sat
sat400:00+3ne11930 0.0 101910
03:00+3wnw22925 0.0 102016
06:00+3w339153 0.0 102031
09:00+5wsw23786 0.0 102092
12:00+10w22475 0.0 1018266
15:00+11ene22479 0.0 1017153
18:00+7ese3463100 0.0 101644
21:00+6ese336872 0.0 101527
5 december, sun
sun500:00+5ese226925 0.0 101313
03:00+4ese227117 0.0 101212
06:00+4e2271100 0.0 101210
09:00+6nne2266100 0.0 101359
12:00+9n2259100 0.0 1012266
15:00+9n3560100 0.0 1014336
18:00+8w226993 0.0 101612
21:00+7sw226925 0.0 101611
6 december, mon
mon600:00+6w226385 0.0 101714
03:00+6w225671 0.0 101813
06:00+5w11555 0.0 101910
09:00+8s11495 0.0 102111
12:00+12se22425 0.0 1020338
15:00+12se23505 0.0 1021215
18:00+9se33645 0.0 102320
21:00+8se33758 0.0 102337
7 december, tue
tue700:00+7ese34862 0.0 102252
03:00+6ese34864 0.0 102254
06:00+5e34895 0.0 102265
09:00+6ese39865 0.0 1022251
12:00+11ese711640 0.0 1020544
15:00+13ese713545 0.0 1019782
18:00+9ese715775 0.0 1018539
21:00+9ese91482100 0.0 1016698
8 december, wed
wed800:00+10ese81277100 0.0 1014778
03:00+10ese81176100 0.0 1012797
06:00+10ese71075100 0.0 1010777
09:00+10ese5876100 0.0 1010811
12:00+11ese456996 0.0 1008805
15:00+12se126656 0.0 1007583
18:00+9wnw23819 0.0 100733
21:00+8w4688100 0.0 100894